Location: Antioch
(38.0049°N, 121.8058°W)
Time: 02:37:29
(UTC+00:00)

Cosmos 1354 Rocket - Pass Details

Date: 20 May 2026
Orbit: 761 x 778 km, 74.0° (Epoch: 9 June)

Event Time Altitude Azimuth Distance (km) Brightness Sun altitude
Rises 03:56:31 0° 3° (N) 3,236 7.7 -8.0°
Reaches altitude 10° 04:01:25 10° 44° (NE) 2,300 6.4 -8.8°
Maximum altitude 04:02:19 10° 54° (NE) 2,270 6.3 -9.0°
Drops below altitude 10° 04:03:13 10° 64° (ENE) 2,297 6.2 -9.1°
Enters shadow 04:05:44 - 89° (E) 2,642 6.3 -9.5°
